Overview Statistics Trail Chart Weather Telemetry Raw packets
 

This is the latest recevied weather packets stored in our database for station/object SV7GBF-2. If no packets are shown the sender has not sent any weather packets the latest 10 day(s).

<< 24 25 26 27 28 29 30 >>
Time Temp. Humidity Pressure Rain* Wind** Luminosity Snow
1788198844 26.67° C 31% 1015 hPa - - - -
1788198243 26.67° C 31% 1015 hPa - - - -
1788197644 27.22° C 32% 1015 hPa - - - -
1788197043 27.78° C 33% 1015 hPa - - - -
1788196445 28.33° C 37% 1015 hPa - - - -
1788195844 27.78° C 39% 1015 hPa - - - -
1788195245 27.78° C 39% 1015 hPa - - - -
1788194645 28.33° C 37% 1015 hPa - - - -
1788194044 28.89° C 32% 1015 hPa - - - -
1788193444 29.44° C 30% 1015 hPa - - - -
1788192847 30° C 24% 1015 hPa - - - -
1788192244 30° C 26% 1015 hPa - - - -
1788187445 31.67° C 7% 1015 hPa - - - -
1788186843 32.22° C 7% 1015 hPa - - - -
1788185645 32.78° C 7% 1015 hPa - - - -
1788185044 32.22° C 7% 1015 hPa - - - -
1788184443 32.78° C 7% 1015 hPa - - - -
1788183843 32.78° C 7% 1015 hPa - - - -
1788183243 32.78° C 7% 1015 hPa - - - -
1788182644 32.78° C 7% 1015 hPa - - - -
1788182047 32.78° C 7% 1015 hPa - - - -
1788181445 32.22° C 7% 1015 hPa - - - -
1788180844 32.22° C 7% 1015 hPa - - - -
1788180245 32.22° C 7% 1015 hPa - - - -
1788179644 32.22° C 7% 1016 hPa - - - -

* Rain since midnight (hover to see other rain measurements)
** Current wind speed in m/s (hover to see current wind gust speed)